{"data":{"norad_id":59744,"intl_designator":"2024-090Q","name":"STARLINK-31779","alt_names":[],"object_type":"PAYLOAD","status":"ACTIVE","operator":null,"country":"US","launch_date":"2024-05-13","launch_site_code":"AFETR","launch_vehicle":null,"mission":null,"orbit_class":"UNKNOWN","rcs_meters":null,"size_class":null,"mass_kg":null,"dimensions":null,"purposes":["comms"],"wikipedia_slug":null,"has_3d_model":false,"image_url":null,"decayed_at":null,"tle_current":{"epoch":"2026-09-21T03:17:19.622688Z","epoch_age_seconds":116322,"freshness":"FRESH","line1":"1 59744U 24090Q   26264.13703267  .00000186  00000+0  16270-4 0  9997","line2":"2 59744  43.0021 159.5041 0001169 271.0122  89.0596 15.27576736133337","mean_motion":15.27576736,"eccentricity":0.0001169,"inclination_deg":43.0021,"raan_deg":159.5041,"arg_perigee_deg":271.0122,"mean_anomaly_deg":89.0596,"bstar":1.627e-5,"rev_number":13333,"period_min":94.266950135067,"perigee_km":482.25679585011,"apogee_km":483.86094344444,"semimajor_km":6861.1958696473,"source":"CELESTRAK","updated_at":"2026-09-22T09:00:49.064641Z"}}}